Location: Poughquag
(41.6090°N, 73.6820°W)
Time: 15:01:07
(UTC-04:00)

Courier 1B - Pass Details

Date: 03 June 2020
Orbit: 962 x 1209 km, 28.3° (Epoch: 05 July)

Event Time Altitude Azimuth Distance (km) Brightness Sun altitude
Exits shadow 04:39:14 - 238° (WSW) 3,285 9.6 -7.4°
Reaches altitude 10° 04:40:12 10° 232° (SW) 3,134 9.4 -7.2°
Maximum altitude 04:43:35 13° 206° (SSW) 2,889 9.4 -6.7°
Drops below altitude 10° 04:46:58 10° 180° (S) 3,134 9.8 -6.2°
Sets 04:51:41 0° 155° (SSE) 4,079 10.6 -5.5°
